INTELSAT 10-02 (28358 NORAD) Tracking and Keplerian Element Data

This shows tracking and keplerian element data for the satellite.

Feedback or suggestion? Click here.




ElementValue
Catalog28358
NameINTELSAT 10-02
Epoch Orbit6317
Epoch Day261.72436777
Epoch Year2021
RAAN180.0119
Inclination0.0173
Eccentricity7.64E-05
Argument of Perigee358.4566
Mean Anonmoly79.1322
Mean Motion1.00271306
Decay Rate-3.5E-07
L11 28358U 04022A 21261.72436777 -.00000035 00000-0 00000-0 0 9998
L22 28358 0.0173 180.0119 0000764 358.4566 79.1322 1.00271306 63174

Live tracking and technical data element details for INTELSAT 10-02 (NORAD 28358). INTELSAT 10-02 can be tracked NOW for your location showing map with azimuth and elevation plus other details from your city location.

Track the satellite on the map from your city or location and see movement details for azimuth, elevation, latitude, longitude, range, height, and movement on the map or in text.







IsCatalogInMostPopularTable: catalog: 28358, numindb: 572
Update: records affected: 1



GetName: 28358 INTELSAT 10-02

Hit Count: updated at: Sun, 26 Sep 2021 01:16:30 GMT